CW3001 Weather Reports


Display with metric or nautical units.
time (UTC)temp
F
wind
direction
speed
MPH
gust
MPH
rain 1hr
in
rain 24hr
in
rain mn
in
humidity
%
barometer
mb
20200331233605 34 40 3.0 3.0 0.00 0.00 0.00 85 1027.2
20200331233104 34 41 3.0 5.0 0.00 0.00 0.00 84 1027.2
20200331232605 34 40 3.0 5.0 0.00 0.00 0.00 84 1027.3
20200331232105 34 43 3.0 5.0 0.00 0.00 0.00 83 1027.3
20200331231604 34 45 3.0 3.0 0.00 0.00 0.00 83 1027.3
20200331231105 34 38 5.0 5.0 0.00 0.00 0.00 83 1027.3
20200331230604 34 33 5.0 5.0 0.00 0.00 0.00 83 1027.4
20200331230111 35 37 5.0 6.0 0.00 0.00 0.00 83 1027.5
20200331225605 35 39 5.0 5.0 0.00 0.00 0.00 83 1027.5
20200331225105 35 38 5.0 6.0 0.00 0.00 0.00 83 1027.5
20200331224605 35 48 3.0 5.0 0.00 0.00 0.00 83 1027.6
20200331224105 35 44 5.0 5.0 0.00 0.00 0.00 83 1027.6
20200331223604 35 46 3.0 6.0 0.00 0.00 0.00 83 1027.7
20200331223104 35 48 5.0 7.0 0.00 0.00 0.00 82 1027.7
20200331222605 35 46 4.0 5.0 0.00 0.00 0.00 81 1027.7
20200331222105 35 43 3.0 3.0 0.00 0.00 0.00 81 1027.7
20200331221604 35 43 3.0 5.0 0.00 0.00 0.00 81 1027.7
20200331221105 35 45 3.0 3.0 0.00 0.00 0.00 80 1027.8
20200331220604 36 43 3.0 5.0 0.00 0.00 0.00 79 1027.8
20200331220105 36 38 3.0 3.0 0.00 0.00 0.00 79 1027.8
20200331215605 36 41 3.0 5.0 0.00 0.00 0.00 78 1027.8
20200331215104 37 41 3.0 5.0 0.00 0.00 0.00 78 1027.9
20200331214604 37 43 4.0 6.0 0.00 0.00 0.00 77 1027.8
20200331214105 37 51 4.0 6.0 0.00 0.00 0.00 77 1027.8
20200331213605 37 53 5.0 6.0 0.00 0.00 0.00 77 1027.9
20200331213104 37 53 5.0 6.0 0.00 0.00 0.00 77 1027.9
20200331212604 38 51 5.0 8.0 0.00 0.00 0.00 77 1027.9
20200331212105 37 50 5.0 6.0 0.00 0.00 0.00 78 1027.9
20200331211604 37 53 6.0 8.0 0.00 0.00 0.00 78 1027.9
20200331211105 37 44 5.0 6.0 0.00 0.00 0.00 79 1027.9
20200331210604 37 45 4.0 7.0 0.00 0.00 0.00 79 1027.8
20200331210105 37 44 4.0 6.0 0.00 0.00 0.00 78 1027.9
20200331205604 37 37 3.0 6.0 0.00 0.00 0.00 78 1027.9
20200331205105 37 45 3.0 5.0 0.00 0.00 0.00 78 1027.9
20200331204605 37 45 4.0 5.0 0.00 0.00 0.00 77 1027.9
20200331204105 37 45 3.0 5.0 0.00 0.00 0.00 77 1027.9
20200331203605 38 47 3.0 5.0 0.00 0.00 0.00 77 1027.9
20200331203104 38 44 5.0 5.0 0.00 0.00 0.00 76 1027.9
20200331202605 38 44 4.0 5.0 0.00 0.00 0.00 76 1028.0
20200331202104 38 43 4.0 7.0 0.00 0.00 0.00 75 1028.0
20200331201604 38 44 3.0 5.0 0.00 0.00 0.00 75 1028.1
20200331201104 38 43 5.0 6.0 0.00 0.00 0.00 75 1028.1
20200331200604 38 43 5.0 6.0 0.00 0.00 0.00 75 1028.1
20200331200105 38 43 5.0 6.0 0.00 0.00 0.00 74 1028.1
20200331195604 39 47 4.0 5.0 0.00 0.00 0.00 73 1028.2
20200331195105 39 50 3.0 5.0 0.00 0.00 0.00 72 1028.3
20200331194604 39 49 3.0 5.0 0.00 0.00 0.00 72 1028.3
20200331194105 40 45 3.0 5.0 0.00 0.00 0.00 71 1028.3
20200331193604 40 38 5.0 6.0 0.00 0.00 0.00 70 1028.4
20200331193104 40 42 5.0 5.0 0.00 0.00 0.00 70 1028.4
20200331192605 40 44 3.0 5.0 0.00 0.00 0.00 69 1028.4
20200331192105 41 50 4.0 6.0 0.00 0.00 0.00 68 1028.4
20200331191604 41 40 5.0 6.0 0.00 0.00 0.00 67 1028.5
20200331191104 41 41 5.0 9.0 0.00 0.00 0.00 66 1028.5
20200331190604 42 44 5.0 7.0 0.00 0.00 0.00 65 1028.5
20200331190105 42 40 5.0 7.0 0.00 0.00 0.00 64 1028.5
20200331185604 42 46 5.0 7.0 0.00 0.00 0.00 63 1028.6
20200331185104 42 40 7.0 10.0 0.00 0.00 0.00 62 1028.5
20200331184605 42 44 5.0 7.0 0.00 0.00 0.00 59 1028.6
20200331184104 42 37 6.0 8.0 0.00 0.00 0.00 57 1028.6
20200331183604 42 44 3.0 5.0 0.00 0.00 0.00 56 1028.6
20200331183105 43 64 2.0 3.0 0.00 0.00 0.00 56 1028.6
20200331182604 43 62 2.0 3.0 0.00 0.00 0.00 55 1028.6
20200331182104 44 63 2.0 5.0 0.00 0.00 0.00 53 1028.6
20200331181604 44 54 2.0 5.0 0.00 0.00 0.00 51 1028.6
20200331181105 45 72 2.0 3.0 0.00 0.00 0.00 50 1028.6
20200331180604 45 58 3.0 5.0 0.00 0.00 0.00 48 1028.7
20200331180105 45 71 3.0 7.0 0.00 0.00 0.00 48 1028.6
20200331175604 46 54 5.0 7.0 0.00 0.00 0.00 47 1028.6
20200331175104 46 60 6.0 10.0 0.00 0.00 0.00 47 1028.6
20200331174605 46 66 6.0 9.0 0.00 0.00 0.00 47 1028.6
20200331174104 46 60 3.0 9.0 0.00 0.00 0.00 46 1028.6
20200331173605 46 69 5.0 9.0 0.00 0.00 0.00 46 1028.6
20200331173105 47 67 6.0 9.0 0.00 0.00 0.00 44 1028.6
20200331172604 47 65 4.0 10.0 0.00 0.00 0.00 43 1028.7
20200331172105 47 70 5.0 9.0 0.00 0.00 0.00 42 1028.7
20200331171605 47 57 5.0 9.0 0.00 0.00 0.00 42 1028.7
20200331171104 48 63 5.0 10.0 0.00 0.00 0.00 43 1028.8
20200331170604 48 63 6.0 10.0 0.00 0.00 0.00 42 1028.8
20200331170105 48 68 3.0 9.0 0.00 0.00 0.00 41 1028.8
20200331165604 48 97 6.0 12.0 0.00 0.00 0.00 38 1028.8
20200331165104 48 57 5.0 12.0 0.00 0.00 0.00 40 1028.8
20200331164604 48 62 7.0 12.0 0.00 0.00 0.00 39 1028.8
20200331164104 48 64 9.0 13.0 0.00 0.00 0.00 36 1028.8
20200331163605 48 85 5.0 8.0 0.00 0.00 0.00 37 1028.7
20200331163104 48 60 6.0 12.0 0.00 0.00 0.00 37 1028.7
20200331162604 49 92 7.0 13.0 0.00 0.00 0.00 37 1028.8
20200331162104 49 70 7.0 13.0 0.00 0.00 0.00 40 1028.8
20200331161604 49 57 6.0 10.0 0.00 0.00 0.00 40 1028.8
20200331161104 49 49 6.0 10.0 0.00 0.00 0.00 42 1028.8
20200331160604 49 46 3.0 9.0 0.00 0.00 0.00 43 1028.8
20200331160104 49 110 6.0 12.0 0.00 0.00 0.00 41 1028.9
20200331155604 49 79 4.0 9.0 0.00 0.00 0.00 43 1028.9
20200331155104 49 61 5.0 9.0 0.00 0.00 0.00 43 1028.9
20200331154604 49 63 6.0 9.0 0.00 0.00 0.00 44 1028.9
20200331154104 49 72 7.0 12.0 0.00 0.00 0.00 44 1029.0
20200331153604 49 66 6.0 9.0 0.00 0.00 0.00 41 1029.0
20200331153105 49 101 7.0 10.0 0.00 0.00 0.00 42 1029.1
20200331152604 49 118 2.0 9.0 0.00 0.00 0.00 41 1029.0
20200331152104 49 100 7.0 12.0 0.00 0.00 0.00 40 1029.1
20200331151604 49 108 9.0 16.0 0.00 0.00 0.00 40 1029.1
20200331151104 49 94 6.0 9.0 0.00 0.00 0.00 40 1029.1
20200331150604 49 46 6.0 8.0 0.00 0.00 0.00 43 1029.1
20200331150104 49 58 6.0 12.0 0.00 0.00 0.00 43 1029.1
20200331145604 49 114 5.0 13.0 0.00 0.00 0.00 42 1029.1
20200331145104 49 93 9.0 15.0 0.00 0.00 0.00 41 1029.2
20200331144604 49 78 6.0 13.0 0.00 0.00 0.00 41 1029.3
20200331144104 49 86 6.0 13.0 0.00 0.00 0.00 42 1029.4
20200331143604 49 85 3.0 10.0 0.00 0.00 0.00 43 1029.4
20200331143104 49 64 8.0 12.0 0.00 0.00 0.00 44 1029.4
20200331142604 49 64 8.0 14.0 0.00 0.00 0.00 44 1029.4
20200331142105 49 58 8.0 13.0 0.00 0.00 0.00 44 1029.5
20200331141604 49 46 3.0 8.0 0.00 0.00 0.00 44 1029.6
20200331141105 49 65 6.0 12.0 0.00 0.00 0.00 43 1029.6
20200331140604 49 59 9.0 12.0 0.00 0.00 0.00 44 1029.7
20200331140105 49 64 9.0 13.0 0.00 0.00 0.00 45 1029.7
20200331135604 49 50 9.0 12.0 0.00 0.00 0.00 46 1029.8
20200331135104 49 54 7.0 12.0 0.00 0.00 0.00 46 1029.8
20200331134604 49 79 7.0 14.0 0.00 0.00 0.00 46 1029.9
20200331134104 49 71 7.0 12.0 0.00 0.00 0.00 46 1030.0
20200331133605 49 73 11.0 16.0 0.00 0.00 0.00 47 1029.9
20200331133104 49 77 7.0 12.0 0.00 0.00 0.00 50 1030.0
20200331132605 49 67 8.0 13.0 0.00 0.00 0.00 49 1030.0
20200331132105 49 77 6.0 10.0 0.00 0.00 0.00 50 1030.1
20200331131605 49 67 6.0 12.0 0.00 0.00 0.00 48 1030.2
20200331131104 49 107 5.0 9.0 0.00 0.00 0.00 49 1030.2
20200331130604 49 108 9.0 14.0 0.00 0.00 0.00 52 1030.3
20200331130105 48 40 7.0 13.0 0.00 0.00 0.00 51 1030.3
20200331125604 48 51 10.0 16.0 0.00 0.00 0.00 50 1030.3
20200331125105 48 68 9.0 15.0 0.00 0.00 0.00 50 1030.3
20200331124605 48 86 8.0 15.0 0.00 0.00 0.00 51 1030.3
20200331124104 48 81 6.0 20.0 0.00 0.00 0.00 52 1030.3
20200331123604 48 44 6.0 12.0 0.00 0.00 0.00 53 1030.4
20200331123104 49 52 7.0 12.0 0.00 0.00 0.00 54 1030.4
20200331122604 48 75 7.0 12.0 0.00 0.00 0.00 52 1030.5
20200331122105 48 117 6.0 12.0 0.00 0.00 0.00 51 1030.5
20200331121604 48 69 6.0 13.0 0.00 0.00 0.00 52 1030.6
20200331121104 48 51 8.0 13.0 0.00 0.00 0.00 52 1030.5
20200331120604 48 57 6.0 15.0 0.00 0.00 0.00 52 1030.6
20200331120105 48 91 9.0 15.0 0.00 0.00 0.00 51 1030.7
20200331115604 48 70 8.0 12.0 0.00 0.00 0.00 54 1030.7
20200331115104 47 81 5.0 10.0 0.00 0.00 0.00 56 1030.7
20200331114605 47 61 7.0 14.0 0.00 0.00 0.00 55 1030.7
20200331114105 47 70 5.0 12.0 0.00 0.00 0.00 54 1030.7
20200331113604 46 145 6.0 12.0 0.00 0.00 0.00 55 1030.7
20200331113105 46 84 11.0 17.0 0.00 0.00 0.00 53 1030.8
20200331112605 46 78 8.0 13.0 0.00 0.00 0.00 57 1030.7
20200331112104 46 105 7.0 12.0 0.00 0.00 0.00 56 1030.7
20200331111605 46 128 8.0 15.0 0.00 0.00 0.00 55 1030.7
20200331111104 46 90 7.0 14.0 0.00 0.00 0.00 55 1030.8
20200331110604 46 67 7.0 15.0 0.00 0.00 0.00 56 1030.7
20200331110105 46 84 10.0 14.0 0.00 0.00 0.00 57 1030.8
20200331105604 46 93 6.0 17.0 0.00 0.00 0.00 58 1030.8
20200331105104 46 93 9.0 16.0 0.00 0.00 0.00 58 1030.9
20200331104604 46 81 7.0 13.0 0.00 0.00 0.00 58 1030.9
20200331104104 46 92 10.0 16.0 0.00 0.00 0.00 58 1031.1
20200331103604 46 89 14.0 18.0 0.00 0.00 0.00 57 1031.1
20200331103105 46 107 5.0 12.0 0.00 0.00 0.00 59 1031.1
20200331102604 46 95 7.0 14.0 0.00 0.00 0.00 61 1031.2
20200331102105 45 116 8.0 17.0 0.00 0.00 0.00 62 1031.2
20200331101605 45 102 6.0 15.0 0.00 0.00 0.00 67 1031.3
20200331101104 44 64 9.0 13.0 0.00 0.00 0.00 67 1031.3
20200331100604 44 92 7.0 15.0 0.00 0.00 0.00 67 1031.3
20200331100104 44 101 9.0 14.0 0.00 0.00 0.00 67 1031.4
20200331095604 45 72 8.0 12.0 0.00 0.00 0.00 68 1031.5
20200331095104 44 69 10.0 16.0 0.00 0.00 0.00 67 1031.6
20200331094605 44 77 7.0 14.0 0.00 0.00 0.00 68 1031.6
20200331094104 43 110 10.0 14.0 0.00 0.00 0.00 67 1031.6
20200331093604 44 78 6.0 14.0 0.00 0.00 0.00 68 1031.6
20200331093109 44 81 11.0 16.0 0.00 0.00 0.00 68 1031.7
20200331092604 44 84 5.0 12.0 0.00 0.00 0.00 70 1031.7
20200331091105 42 69 7.0 15.0 0.00 0.00 0.00 71 1031.7
20200331090604 42 79 10.0 15.0 0.00 0.00 0.00 71 1031.7
20200331090104 42 78 10.0 15.0 0.00 0.00 0.00 73 1031.7
20200331085605 42 78 9.0 14.0 0.00 0.00 0.00 73 1031.7
20200331085104 42 55 10.0 15.0 0.00 0.00 0.00 74 1031.7
20200331084605 42 75 7.0 13.0 0.00 0.00 0.00 76 1031.7
20200331084105 41 92 7.0 13.0 0.00 0.00 0.00 77 1031.6
20200331083604 41 76 7.0 18.0 0.00 0.00 0.00 78 1031.7
20200331083111 41 85 6.0 12.0 0.00 0.00 0.00 79 1031.7
20200331082605 41 69 7.0 12.0 0.00 0.00 0.00 80 1031.7
20200331082104 40 68 7.0 12.0 0.00 0.00 0.00 81 1031.7
20200331081605 40 62 7.0 12.0 0.00 0.00 0.00 82 1031.7
20200331081105 39 77 5.0 10.0 0.00 0.00 0.00 83 1031.6
20200331080604 39 82 6.0 13.0 0.00 0.00 0.00 83 1031.6
20200331080104 39 65 7.0 14.0 0.00 0.00 0.00 84 1031.5
20200331075605 39 69 7.0 13.0 0.00 0.00 0.00 85 1031.5
20200331075104 38 81 7.0 12.0 0.00 0.00 0.00 87 1031.5
20200331074605 38 92 8.0 13.0 0.00 0.00 0.00 87 1031.5
20200331074105 38 78 10.0 13.0 0.00 0.00 0.00 89 1031.4
20200331073605 37 69 8.0 13.0 0.00 0.00 0.00 90 1031.4
20200331073105 37 91 6.0 15.0 0.00 0.00 0.00 91 1031.3
20200331072605 37 76 9.0 12.0 0.00 0.00 0.00 91 1031.2
20200331072105 36 77 9.0 15.0 0.00 0.00 0.00 92 1031.2
20200331071605 36 80 7.0 14.0 0.00 0.00 0.00 94 1031.3
20200331071105 36 79 9.0 16.0 0.00 0.00 0.00 94 1031.2
20200331070613 36 69 9.0 15.0 0.00 0.00 0.00 95 1031.3
20200331070104 36 59 9.0 14.0 0.00 0.00 0.00 95 1031.2
20200331065604 35 67 6.0 13.0 0.00 0.00 0.00 96 1031.2
20200331065105 35 75 7.0 12.0 0.00 0.00 0.00 96 1031.1
20200331064605 35 83 5.0 12.0 0.00 0.00 0.00 96 1031.1
20200331064105 35 62 9.0 12.0 0.00 0.00 0.00 96 1031.0
20200331063604 35 73 7.0 13.0 0.00 0.00 0.00 96 1031.0
20200331063105 35 72 5.0 12.0 0.00 0.00 0.00 96 1031.0
20200331062615 35 66 5.0 9.0 0.00 0.00 0.00 96 1030.9
20200331062105 34 76 3.0 9.0 0.00 0.00 0.00 96 1030.8
20200331061104 34 65 5.0 9.0 0.00 0.00 0.00 96 1030.8
20200331060606 34 70 3.0 8.0 0.00 0.00 0.00 96 1030.8
20200331060105 34 66 5.0 10.0 0.00 0.00 0.00 96 1030.8
20200331055605 34 64 4.0 10.0 0.00 0.00 0.00 96 1030.7
20200331055105 33 69 5.0 8.0 0.00 0.00 0.00 96 1030.6
20200331054605 33 57 4.0 7.0 0.00 0.00 0.00 96 1030.5
20200331054105 33 63 5.0 8.0 0.00 0.00 0.00 96 1030.4
20200331053605 33 63 5.0 8.0 0.00 0.00 0.00 96 1030.3
20200331053104 33 64 3.0 6.0 0.00 0.00 0.00 96 1030.3
20200331052605 33 60 4.0 6.0 0.00 0.00 0.00 96 1030.2
20200331052104 33 62 4.0 6.0 0.00 0.00 0.00 96 1030.2
20200331051605 33 61 4.0 6.0 0.00 0.00 0.00 96 1030.2
20200331051104 33 53 3.0 6.0 0.00 0.00 0.00 96 1030.1
20200331050604 33 56 4.0 5.0 0.00 0.00 0.00 96 1030.1
20200331050105 33 55 3.0 6.0 0.00 0.00 0.00 96 1030.1
20200331045604 33 53 5.0 7.0 0.00 0.00 0.00 96 1030.1
20200331045104 33 52 4.0 7.0 0.00 0.00 0.00 96 1030.1
20200331044606 33 56 4.0 7.0 0.00 0.00 0.00 96 1030.1
20200331044104 33 53 5.0 7.0 0.00 0.00 0.00 96 1030.1
20200331043605 34 53 3.0 6.0 0.00 0.00 0.00 96 1030.0
20200331043104 33 59 5.0 7.0 0.00 0.00 0.00 96 1030.0
20200331042605 34 55 4.0 6.0 0.00 0.00 0.00 96 1030.0
20200331042104 34 54 3.0 5.0 0.00 0.00 0.00 96 1029.9
20200331041605 34 50 3.0 5.0 0.00 0.00 0.00 96 1029.8
20200331041117 34 60 3.0 5.0 0.00 0.00 0.00 95 1029.8
20200331040605 33 63 3.0 5.0 0.00 0.00 0.00 95 1029.8
20200331040105 33 57 3.0 5.0 0.00 0.00 0.00 95 1029.7
20200331035604 33 62 3.0 5.0 0.00 0.00 0.00 95 1029.7
20200331035104 33 64 2.0 6.0 0.00 0.00 0.00 95 1029.6
20200331034605 33 59 2.0 3.0 0.00 0.00 0.00 95 1029.5
20200331034105 34 57 3.0 5.0 0.00 0.00 0.00 95 1029.5
20200331033605 34 53 3.0 5.0 0.00 0.00 0.00 95 1029.5
20200331033105 34 58 3.0 6.0 0.00 0.00 0.00 95 1029.5
20200331032605 34 58 2.0 3.0 0.00 0.00 0.00 95 1029.4
20200331032105 34 55 3.0 3.0 0.00 0.00 0.00 95 1029.4
20200331031604 34 57 2.0 3.0 0.00 0.00 0.00 95 1029.4
20200331031105 34 56 2.0 3.0 0.00 0.00 0.00 95 1029.3
20200331030604 34 55 2.0 3.0 0.00 0.00 0.00 95 1029.3
20200331030105 35 63 3.0 5.0 0.00 0.00 0.00 95 1029.3
20200331025625 35 54 3.0 5.0 0.00 0.00 0.00 95 1029.3
20200331025105 35 56 4.0 6.0 0.00 0.00 0.00 95 1029.3
20200331024605 35 54 3.0 5.0 0.00 0.00 0.00 95 1029.3
20200331024104 35 60 4.0 7.0 0.00 0.00 0.00 95 1029.2
20200331023604 35 53 5.0 6.0 0.00 0.00 0.00 95 1029.2
20200331023105 35 58 4.0 7.0 0.00 0.00 0.00 95 1029.2
20200331022605 35 55 4.0 6.0 0.00 0.00 0.00 95 1029.2
20200331022104 35 56 3.0 7.0 0.00 0.00 0.00 95 1029.2
20200331021604 35 56 5.0 7.0 0.00 0.00 0.00 95 1029.1
20200331021105 35 57 3.0 5.0 0.00 0.00 0.00 95 1029.2
20200331020605 35 56 5.0 5.0 0.00 0.00 0.00 95 1029.2
20200331020104 35 53 3.0 5.0 0.00 0.00 0.00 95 1029.2
20200331015604 35 55 3.0 6.0 0.00 0.00 0.00 95 1029.2
20200331015105 35 51 3.0 5.0 0.00 0.00 0.00 95 1029.2
20200331014604 35 45 3.0 5.0 0.00 0.00 0.00 95 1029.2
20200331014105 35 52 5.0 5.0 0.00 0.00 0.00 95 1029.1
20200331013604 35 47 3.0 6.0 0.00 0.00 0.00 95 1029.2
20200331013105 35 44 3.0 6.0 0.00 0.00 0.00 94 1029.2
20200331012605 35 48 5.0 6.0 0.00 0.00 0.00 94 1029.1
20200331012105 35 41 3.0 5.0 0.00 0.00 0.00 94 1029.2
20200331011604 35 45 3.0 5.0 0.00 0.00 0.00 94 1029.1
20200331011105 35 42 3.0 5.0 0.00 0.00 0.00 94 1029.1
20200331010604 35 43 3.0 5.0 0.00 0.00 0.00 94 1029.1
20200331010105 35 46 3.0 5.0 0.00 0.00 0.00 94 1029.1
20200331005605 36 52 3.0 5.0 0.00 0.00 0.00 94 1029.0
20200331005105 36 50 3.0 6.0 0.00 0.00 0.00 94 1029.0
20200331004605 36 45 3.0 3.0 0.00 0.00 0.00 94 1029.0
20200331004105 36 47 3.0 5.0 0.00 0.00 0.00 94 1029.0
20200331003605 36 49 3.0 6.0 0.00 0.00 0.00 94 1029.0
20200331003105 36 50 4.0 5.0 0.00 0.00 0.00 94 1029.0
20200331002604 36 44 5.0 5.0 0.00 0.00 0.00 93 1029.0
20200331002105 36 43 3.0 5.0 0.00 0.00 0.00 93 1029.0
20200331001605 36 44 3.0 5.0 0.00 0.00 0.00 93 1028.9
20200331001108 36 43 3.0 5.0 0.00 0.00 0.00 93 1028.9
20200331000605 37 43 3.0 5.0 0.00 0.00 0.00 93 1028.9
20200330235605 37 44 3.0 5.0 0.00 0.00 0.00 92 1028.9
20200330235105 37 37 3.0 5.0 0.00 0.00 0.00 92 1028.9
20200330234605 37 40 4.0 5.0 0.00 0.00 0.00 92 1029.0
20200330234105 37 43 3.0 5.0 0.00 0.00 0.00 92 1028.9